Theta_e
348 350 348 348 348 349 349 349 350 350 351 353 354 355 354 355 355 355 355 356 358 360 361 360 360 361 361 360 359 360 360 360 359 359 358 359 358 358 360 360 358 356 356 356 358 358 356 353 352 349 348 347 345 345 344 343 341 336 336 340 343 345 345 344 343 342 344 346 346 344 344 344 346 345 343 342 341 342 343 343 344 344 344 344 344
347 349 348 348 348 349 350 350 351 352 353 354 355 356 356 356 357 356 356 356 358 360 362 361 360 360 360 360 360 360 361 360 360 360 358 358 359 359 360 359 359 359 361 360 359 358 355 353 351 348 347 347 346 345 344 342 341 338 340 343 345 344 343 342 341 340 344 346 344 347 348 345 344 344 342 340 339 340 340 340 340 340 340 340 341
348 348 347 347 348 349 350 352 352 353 354 355 356 358 358 357 357 359 357 357 358 359 361 361 359 359 359 360 360 359 361 360 360 360 358 358 358 359 360 359 360 361 362 362 358 356 355 353 351 349 347 348 346 344 343 342 343 343 342 343 343 343 343 342 342 341 344 345 344 351 354 350 350 348 342 339 338 338 338 338 338 337 338 339 339
348 346 347 347 347 349 351 353 353 353 355 355 356 359 359 359 359 360 360 358 358 358 360 361 360 359 358 358 359 358 358 358 358 359 358 357 357 359 360 359 360 361 362 362 359 355 354 352 351 349 348 348 347 342 340 341 342 341 342 344 343 343 343 342 342 342 344 345 347 351 350 350 354 352 343 338 338 338 337 336 335 335 335 336 338
350 347 348 348 347 349 352 354 354 354 355 356 356 359 361 360 359 361 362 360 359 358 358 360 360 359 358 358 358 358 356 356 357 358 357 357 356 357 359 360 360 360 360 360 358 355 354 352 350 349 348 348 345 339 338 341 342 341 341 343 343 343 343 341 341 341 341 343 345 347 348 350 351 348 345 344 338 337 337 335 334 333 332 333 336
351 350 348 349 348 350 354 355 354 354 356 356 356 358 361 361 360 361 363 362 359 358 357 359 360 359 359 359 359 359 358 356 356 357 357 357 356 355 356 358 359 359 358 358 356 354 353 352 350 349 348 348 343 339 341 341 340 341 340 341 343 344 342 341 342 340 340 342 342 342 345 346 347 345 350 353 344 337 336 334 332 332 331 332 334
349 351 349 349 350 350 354 356 354 355 356 356 356 358 360 361 361 361 362 363 360 358 358 359 361 361 360 360 360 361 362 359 357 357 357 356 355 353 353 356 359 359 358 356 355 353 353 351 349 348 347 347 342 341 343 339 336 340 341 342 344 343 342 343 343 340 342 342 339 339 340 341 343 343 347 353 351 345 339 335 333 332 331 331 330
349 352 351 351 352 351 354 356 355 355 355 356 356 357 359 362 362 361 362 363 362 360 358 359 361 361 361 362 362 362 362 360 359 358 357 355 354 352 353 356 358 358 357 356 354 353 352 350 348 347 346 346 342 341 343 340 340 342 342 344 344 342 343 344 342 341 342 341 337 339 340 339 340 340 341 345 350 352 347 340 335 331 331 330 329
350 351 351 352 353 352 352 355 356 355 356 357 357 358 359 362 362 362 363 363 363 362 360 360 361 362 363 364 363 362 361 360 361 361 358 355 353 352 353 356 358 358 356 354 354 352 351 348 346 346 345 344 342 341 342 342 343 343 343 345 344 342 343 343 340 339 339 341 340 338 338 339 339 338 338 338 343 349 349 346 339 333 333 331 329
351 350 352 354 353 353 352 354 356 356 356 357 358 359 360 362 364 364 364 364 364 363 362 361 361 363 364 364 364 362 361 360 360 361 359 356 354 353 354 356 357 358 356 354 353 351 348 346 345 346 344 343 341 340 342 343 342 343 344 344 344 344 343 341 340 340 339 339 339 337 337 340 340 340 340 336 339 345 345 342 337 336 340 335 330
352 350 353 355 354 353 352 354 356 357 356 357 359 361 361 363 365 366 365 364 364 363 363 364 363 364 364 364 364 363 362 361 360 359 359 357 357 356 356 356 357 358 356 354 352 350 347 345 346 346 343 343 342 340 343 343 340 340 343 343 344 344 343 342 342 341 338 338 338 337 337 339 340 340 339 336 337 342 343 341 336 334 337 334 331
353 354 355 357 357 356 354 354 357 358 358 358 359 360 362 364 366 367 366 365 365 365 364 365 365 366 365 364 364 363 362 361 360 359 359 359 359 358 358 358 358 357 356 353 351 349 347 345 346 346 344 343 343 343 344 344 340 339 342 343 344 344 343 344 343 341 339 338 338 338 336 337 337 337 338 337 337 339 340 341 339 336 338 336 333
352 355 356 358 359 358 356 356 358 359 359 359 359 359 363 366 366 368 368 367 365 365 365 366 367 366 365 364 363 363 362 362 360 359 359 360 361 360 359 359 358 357 354 352 351 348 347 346 345 346 344 343 344 344 344 343 341 341 341 341 343 344 344 343 343 341 340 339 339 339 338 337 337 337 337 337 338 337 337 339 339 337 338 337 334
352 354 355 358 360 358 356 358 359 360 360 359 358 359 362 365 367 368 369 368 366 365 366 366 367 366 364 364 364 363 363 363 361 360 359 360 362 361 360 359 358 356 351 350 351 348 346 347 345 344 344 344 345 345 344 343 342 341 341 341 342 343 343 343 343 341 340 340 339 340 339 337 337 338 338 337 337 337 337 338 339 338 338 336 336
352 355 355 356 360 359 357 357 358 360 360 359 358 359 361 365 367 369 370 369 366 366 366 366 367 366 364 363 364 364 364 363 362 361 361 361 361 361 360 359 358 355 350 349 350 348 347 347 345 344 344 345 345 345 345 343 342 341 341 340 341 342 342 343 343 342 341 341 340 340 340 339 338 337 338 337 337 337 336 336 338 340 341 339 339
349 353 356 357 359 360 357 356 358 360 359 358 357 359 361 364 367 369 370 370 368 366 366 366 366 366 365 363 364 364 363 363 363 362 361 361 360 361 360 358 357 354 351 349 349 348 348 347 346 344 344 345 345 345 345 344 342 341 341 341 341 341 341 342 342 342 341 341 341 340 340 340 339 338 337 338 337 336 337 337 337 339 341 342 342
349 353 357 357 357 359 358 355 357 358 358 358 357 359 361 363 367 369 370 371 369 366 366 366 367 366 365 364 364 364 364 363 363 363 362 361 360 361 360 358 356 354 351 350 349 348 348 348 346 344 344 345 346 345 344 343 342 341 341 341 341 340 340 341 342 342 342 341 340 340 340 340 340 339 338 338 338 338 337 338 338 337 339 342 342
352 356 358 357 357 360 359 355 354 357 357 358 358 359 361 363 366 369 371 372 371 368 366 366 367 366 365 365 364 364 364 363 363 363 361 361 361 361 361 359 357 354 352 351 350 349 348 348 347 345 344 345 346 345 344 342 342 342 341 341 341 341 340 341 341 342 341 341 340 339 340 340 339 340 339 339 339 339 339 339 339 338 338 340 341
353 355 357 357 357 359 358 354 353 354 357 360 360 360 361 363 365 368 370 372 371 369 368 367 367 366 366 366 365 364 363 363 363 362 361 361 362 362 361 360 358 355 353 352 351 350 348 348 347 346 345 345 346 345 344 343 342 342 342 342 342 341 341 341 341 341 341 340 340 339 339 339 340 340 340 339 339 339 339 340 340 339 338 338 339
352 351 355 356 354 356 357 355 352 353 357 360 360 360 359 362 364 367 370 372 372 371 369 368 368 367 366 367 366 365 364 363 362 362 361 361 361 361 361 361 359 357 354 352 351 350 348 347 347 346 346 346 346 345 344 343 343 343 342 342 342 341 341 341 341 341 340 339 339 339 339 339 340 340 340 340 339 338 339 340 341 340 339 339 338
354 351 350 352 354 355 356 356 353 353 356 359 360 359 358 359 362 366 369 372 373 373 370 368 368 367 367 368 367 367 365 363 362 361 361 361 361 361 362 361 359 357 355 353 352 351 349 347 346 346 346 346 346 346 344 344 344 344 343 342 341 341 341 341 341 340 340 339 339 339 339 339 339 340 340 340 340 339 339 339 340 340 339 339 338
356 353 349 350 356 357 356 357 355 353 355 357 359 359 357 358 360 364 369 371 372 374 371 368 369 367 367 367 368 367 366 365 363 362 361 361 361 361 361 361 359 357 355 353 352 351 349 348 346 345 346 346 346 346 345 345 345 343 342 342 341 340 341 340 340 340 339 339 339 338 339 340 339 339 339 339 339 339 339 339 339 338 338 337 337
353 349 348 352 356 358 358 359 358 356 357 358 358 359 358 358 360 363 368 371 372 373 372 369 369 368 367 366 368 368 366 365 365 364 362 361 361 362 361 361 360 357 356 354 352 351 350 349 346 345 345 345 345 345 345 345 344 343 343 342 340 340 340 341 340 340 340 339 339 339 339 340 339 339 339 339 339 339 339 339 338 337 337 336 335
351 347 351 354 353 359 366 367 363 360 359 359 361 361 360 359 360 362 367 370 371 372 373 370 369 369 367 366 368 369 368 367 366 366 364 362 362 363 361 361 360 358 356 354 352 351 350 349 347 345 345 344 344 345 344 344 344 343 343 342 340 340 341 341 340 340 340 340 339 340 340 340 340 340 339 339 339 338 338 338 339 338 337 336 336
356 355 359 357 356 364 374 374 367 362 361 363 363 363 363 362 361 362 365 369 369 369 372 372 370 370 369 367 368 369 369 368 367 367 366 363 363 364 362 361 360 359 357 355 353 352 350 349 347 346 345 344 344 344 344 343 343 343 343 342 340 339 340 340 340 340 340 340 340 340 340 340 340 340 339 339 339 339 338 339 339 338 338 337 337
367 368 367 364 366 373 379 378 371 364 363 365 365 365 365 363 361 361 363 366 366 365 369 372 372 371 370 368 368 368 369 369 368 367 366 364 362 363 363 362 360 359 358 357 354 352 350 348 346 346 345 344 344 344 344 343 343 343 342 341 340 339 340 340 340 340 340 340 340 341 341 341 340 340 340 340 340 339 339 339 339 339 338 338 337
372 374 374 374 381 382 381 379 374 366 362 365 366 364 363 362 361 360 361 363 364 363 366 372 373 370 369 370 368 367 368 370 368 366 366 364 361 362 364 362 361 360 360 357 355 353 350 347 345 346 346 344 342 343 344 342 342 343 342 341 341 340 340 340 340 340 340 341 341 341 341 341 341 341 340 339 340 340 340 340 339 339 339 338 337
376 378 379 381 385 388 385 380 376 370 364 365 365 363 362 360 359 358 358 360 362 361 364 371 372 370 369 370 369 367 368 368 367 366 365 364 362 361 363 363 362 361 360 358 356 353 350 347 345 345 345 343 341 343 344 343 342 342 341 341 341 340 340 339 339 340 341 341 341 341 341 340 340 340 339 339 339 339 340 340 339 338 339 338 337
374 377 381 381 384 391 390 382 379 374 368 366 365 364 362 361 358 357 356 357 359 360 362 369 372 371 369 369 369 368 367 367 368 367 365 364 363 362 362 363 362 361 359 357 355 352 349 347 345 344 343 342 341 343 345 343 342 342 342 342 342 342 341 339 340 340 341 341 341 341 340 339 338 338 338 338 338 338 339 339 338 338 338 339 338
372 377 381 380 381 387 389 386 383 379 372 368 367 366 364 363 359 357 355 356 358 359 362 367 371 371 370 370 370 370 369 369 369 368 366 365 364 363 362 362 362 360 358 357 354 351 349 347 345 344 343 342 342 342 343 343 341 341 342 343 343 342 341 340 340 341 341 341 341 340 339 338 337 337 336 335 336 336 336 336 336 337 337 338 338
367 375 378 379 379 382 386 387 384 380 374 369 368 367 365 364 361 358 357 356 358 361 362 366 371 371 371 371 372 372 372 370 369 368 367 366 364 363 362 361 362 360 358 357 354 351 349 346 345 344 342 343 343 342 343 341 339 339 341 342 342 341 341 340 341 341 341 342 341 339 339 338 337 336 335 335 335 334 334 334 334 334 334 336 337
366 374 376 377 376 377 382 383 379 377 375 369 370 370 367 365 362 359 357 356 360 363 363 366 371 372 372 373 373 374 373 371 370 368 367 366 364 363 362 361 362 361 359 357 352 349 348 346 345 345 344 343 344 343 343 341 339 339 339 340 341 341 340 340 341 341 341 342 341 341 340 339 338 337 336 336 336 335 335 335 335 335 335 335 334
367 377 377 374 370 370 376 379 375 374 373 371 371 371 369 366 363 362 360 357 362 365 365 367 372 373 374 375 375 374 373 371 370 367 366 367 365 363 362 362 362 361 360 357 352 349 347 345 345 346 345 343 344 343 342 340 339 340 340 341 341 340 340 340 341 341 341 341 341 340 340 339 339 338 337 337 336 336 336 336 336 336 336 336 336
357 370 375 375 373 372 375 377 375 372 371 370 370 370 369 367 365 365 362 359 364 368 367 370 374 374 375 375 374 374 372 370 369 367 367 367 365 364 363 362 362 361 359 356 351 348 346 346 346 346 345 344 344 343 342 340 338 338 339 340 341 340 340 340 339 338 338 339 339 339 339 339 339 339 338 337 337 337 337 336 336 337 337 337 337
352 359 372 380 380 378 378 378 375 371 369 369 370 369 369 367 367 367 365 362 366 370 370 372 375 376 375 374 374 372 371 369 368 366 366 366 365 365 364 363 362 360 358 355 350 346 345 346 347 345 344 345 345 344 342 339 336 335 335 337 338 339 339 337 335 335 336 337 337 338 338 339 339 339 339 338 338 338 338 338 338 338 338 338 337
348 354 373 387 383 377 378 379 374 371 369 370 370 369 368 367 367 368 366 366 370 371 372 375 376 376 374 374 373 371 370 369 367 366 366 365 365 365 364 363 362 360 357 354 350 347 346 346 346 345 345 346 346 344 341 339 337 334 333 332 331 334 336 335 335 335 334 335 336 337 338 339 339 340 340 340 340 339 339 339 339 338 338 338 337
343 345 361 380 379 375 376 377 374 372 370 370 370 370 368 367 366 366 367 371 374 374 374 376 376 375 374 373 371 369 369 367 366 365 364 363 364 365 364 363 362 360 357 353 351 349 348 346 346 347 347 346 347 344 337 335 335 332 329 329 329 331 334 336 337 335 333 335 337 337 336 337 337 338 340 340 340 341 341 339 338 338 338 337 337
342 339 345 367 376 376 375 376 375 372 370 371 371 371 370 369 368 367 368 371 375 376 376 377 376 374 372 371 369 367 366 364 363 363 361 361 361 362 364 363 362 360 358 354 352 350 349 348 347 347 347 346 347 342 333 331 333 330 328 331 332 333 335 337 337 336 336 338 338 337 336 336 337 338 339 341 341 341 341 340 338 338 337 337 336
338 336 347 367 376 375 375 375 374 373 371 372 372 372 371 370 370 369 367 371 375 377 377 376 374 372 370 368 367 364 363 362 361 361 360 359 359 360 362 362 361 360 358 355 353 352 350 349 348 348 347 346 344 340 335 333 332 328 327 333 337 336 336 337 338 339 339 337 336 336 333 332 335 339 339 340 340 340 340 338 336 335 335 335 335
337 345 366 377 376 376 376 375 373 372 372 372 372 372 370 370 371 370 370 374 376 376 375 373 371 369 367 366 364 362 361 360 360 360 358 358 358 358 360 361 360 360 358 356 354 352 350 349 348 346 345 344 343 341 338 335 330 327 331 337 338 335 335 338 340 339 338 337 336 335 331 328 332 338 340 339 339 339 338 336 332 331 332 334 334
333 355 376 379 376 377 376 372 372 372 371 371 372 372 372 372 373 372 373 375 376 374 373 370 369 367 365 364 362 361 360 360 359 359 357 357 358 357 358 360 359 358 356 353 351 350 348 346 345 343 343 343 341 338 335 329 326 331 336 337 333 330 332 338 341 339 339 337 332 329 331 334 337 339 339 339 339 338 336 333 331 330 330 330 331
350 366 376 374 374 376 373 370 371 371 370 372 372 372 373 374 374 374 375 375 374 373 371 369 367 366 364 362 360 359 359 358 357 357 357 357 357 357 358 359 358 356 354 351 349 348 346 344 341 339 341 341 339 337 331 324 327 335 337 333 330 330 333 337 339 338 337 333 326 325 332 338 339 338 337 338 336 335 334 332 331 329 327 327 327
367 371 371 369 372 373 369 368 371 371 371 373 373 374 374 374 375 375 374 374 372 370 368 367 365 363 361 359 358 358 358 357 357 357 357 357 357 358 358 358 356 354 352 351 349 347 345 343 339 338 339 339 338 336 331 329 335 338 335 330 328 329 330 333 336 336 334 331 331 334 338 339 339 337 335 334 333 332 332 331 330 328 327 326 325
368 368 367 367 371 372 369 368 370 371 372 372 373 373 373 374 374 374 371 371 370 368 366 365 363 361 360 359 357 356 356 357 356 356 357 357 357 357 356 355 354 353 352 351 349 345 344 343 340 339 340 340 338 336 335 336 337 335 330 326 325 326 328 332 334 335 335 336 338 339 339 338 336 335 333 332 331 331 331 330 329 328 326 325 324
366 368 369 369 371 374 373 372 372 372 372 373 372 372 373 373 372 370 369 368 367 367 365 364 362 360 359 358 357 356 356 356 356 356 357 357 356 356 355 354 354 353 351 350 348 345 344 342 341 342 343 342 339 337 337 336 332 329 326 325 326 328 331 333 334 334 336 338 339 339 338 336 334 333 332 330 329 329 329 328 327 325 324 323 322
365 366 368 369 371 373 373 374 375 373 372 373 371 371 372 371 369 368 367 366 366 364 364 362 361 359 358 357 357 356 356 356 356 355 356 355 354 354 354 353 352 352 351 349 348 346 344 342 341 341 342 341 339 337 337 336 332 328 327 329 332 334 335 335 335 334 335 336 337 337 336 334 332 331 329 328 328 328 327 326 325 324 324 323 322
351 353 359 365 369 372 374 374 374 372 372 372 371 370 370 369 368 367 366 365 364 363 362 361 360 358 356 356 356 356 356 355 354 354 354 353 353 352 352 352 351 350 350 349 347 346 344 342 341 340 340 340 339 338 338 336 331 328 330 334 336 336 336 336 335 334 334 334 335 335 334 332 330 328 327 326 326 326 326 325 325 324 324 323 324
348 347 350 355 360 362 364 366 365 364 367 368 369 368 367 366 366 365 364 363 362 360 360 359 357 356 355 354 355 355 355 353 352 352 351 350 351 351 350 350 350 349 349 348 346 345 343 342 341 340 339 339 339 339 339 335 331 332 335 336 336 335 335 335 334 333 332 332 333 333 331 329 328 327 326 326 326 326 326 325 325 325 325 324 324
349 350 350 352 355 355 356 359 360 360 362 364 364 363 363 363 362 361 360 360 358 357 358 356 355 355 355 354 354 353 351 349 348 348 347 346 347 348 348 347 347 347 347 346 345 344 343 342 340 338 338 338 338 338 339 336 334 335 335 335 333 332 332 331 330 331 332 332 332 332 330 329 329 328 328 328 327 327 327 326 326 326 325 325 324
347 347 348 351 354 355 356 359 360 359 359 360 360 360 360 360 360 359 358 357 355 356 355 354 353 353 352 353 352 349 347 345 344 343 342 342 342 343 344 344 344 345 344 343 343 342 341 340 339 338 339 339 338 339 339 338 336 336 334 332 332 331 331 331 331 331 332 332 332 332 331 330 330 329 329 329 328 328 328 327 326 325 324 323 323
348 349 351 353 355 357 358 358 357 357 357 357 358 358 359 359 359 359 358 356 356 355 353 352 352 351 350 351 350 346 344 343 341 340 339 338 338 339 340 340 341 341 341 341 341 341 340 339 338 338 339 339 339 339 340 338 337 336 333 332 332 332 332 333 332 331 330 330 329 329 329 328 327 327 328 329 328 328 328 326 325 324 323 323 322
Wind_Speed
18 22 24 24 24 24 24 23 25 25 24 25 25 26 26 23 24 23 22 23 23 22 21 19 18 17 16 16 15 15 14 14 14 13 12 11 11 10 11 11 10 10 10 9 8 6 5 5 4 4 3 4 3 2 1 2 3 3 2 3 2 3 4 3 1 3 6 6 6 5 3 3 1 0 2 1 1 4 3 3 4 3 5 5 6
17 20 22 24 25 25 25 23 25 26 25 27 26 26 27 25 25 25 24 23 23 24 23 21 20 18 17 16 15 15 15 15 13 14 13 11 11 10 10 10 10 11 12 11 9 6 6 7 6 5 4 4 3 2 1 2 3 2 1 3 2 2 3 3 4 4 6 7 4 1 4 4 1 2 3 1 3 4 2 3 4 4 5 6 5
15 18 20 24 26 27 26 24 25 27 26 27 26 26 28 26 25 26 26 25 24 24 24 23 21 19 17 16 16 14 14 15 13 13 12 11 12 13 11 10 10 11 11 11 9 8 8 8 7 6 5 4 3 3 2 2 1 0 1 3 2 3 3 1 4 4 6 9 5 1 1 2 1 4 4 1 4 3 4 5 5 4 5 6 5
14 18 19 21 24 27 26 25 26 27 26 27 27 27 28 28 27 28 28 27 25 25 25 23 21 19 17 15 15 14 13 13 12 11 12 11 12 14 13 12 12 11 10 9 9 9 9 9 8 7 6 4 3 3 2 2 1 2 1 1 3 5 5 2 5 5 5 6 4 2 3 1 1 2 1 3 1 1 7 6 4 6 5 4 4
14 16 18 18 20 23 27 27 27 27 28 28 29 29 28 29 29 28 28 28 26 26 26 23 21 20 19 16 15 14 12 12 13 12 12 12 12 13 13 13 12 11 10 9 9 10 10 9 8 7 6 5 3 3 3 3 3 3 3 1 2 5 6 2 6 5 5 5 3 2 2 1 1 4 3 1 3 3 7 6 5 4 3 4 3
14 15 16 18 19 21 26 28 28 27 29 30 30 30 29 30 30 29 28 28 27 27 27 25 23 22 21 19 16 15 14 14 15 14 14 13 12 12 13 14 13 12 11 10 10 10 11 10 9 7 6 6 4 3 3 4 4 4 3 2 1 2 5 3 4 3 3 3 2 2 3 3 2 6 5 0 3 5 6 4 5 5 3 5 4
14 15 16 17 19 19 22 28 29 28 28 30 30 30 30 29 31 30 28 28 27 27 28 26 24 23 22 21 19 17 16 16 16 15 14 14 13 13 14 15 14 12 11 11 11 11 11 11 9 6 6 7 5 5 5 6 6 4 2 3 2 1 2 5 2 1 2 3 2 2 4 4 2 3 3 1 2 3 2 2 6 8 7 6 5
15 15 16 17 18 20 22 27 30 29 28 30 30 31 31 31 31 31 29 28 28 28 29 28 26 25 24 22 20 19 18 17 17 16 14 14 14 14 14 15 15 13 12 12 11 12 12 11 9 7 6 6 6 7 6 5 4 3 2 3 2 2 1 4 4 2 1 3 3 3 4 3 2 2 2 1 1 2 1 3 5 6 7 8 7
16 17 17 16 17 22 25 27 30 30 28 29 30 31 32 32 32 32 30 29 28 28 30 30 27 26 25 23 21 20 18 17 16 16 16 15 14 13 14 15 15 13 12 13 13 13 13 10 9 8 7 7 7 7 7 5 3 4 3 2 3 3 2 1 3 4 4 4 4 3 3 2 1 1 2 2 1 0 1 2 3 2 4 6 5
14 16 16 16 18 24 27 27 30 30 29 30 30 30 31 31 31 32 31 29 29 29 30 30 28 26 25 24 22 21 20 18 17 17 17 16 15 14 14 15 16 14 13 13 13 13 12 10 10 10 9 8 9 8 8 8 6 5 5 4 4 4 3 3 2 2 1 3 3 2 2 3 3 2 3 2 0 1 1 4 4 1 3 4 3
13 14 15 17 19 23 27 27 29 30 29 29 30 29 30 31 31 32 32 30 30 30 30 30 29 27 26 25 24 22 21 20 18 19 19 18 16 16 16 16 16 15 14 14 14 13 12 11 11 11 11 10 10 9 6 8 8 8 8 6 5 5 4 4 2 1 1 1 2 1 3 4 4 4 4 3 2 2 2 4 6 4 2 3 2
13 12 12 15 16 19 23 26 29 31 30 29 30 30 30 31 32 32 32 31 30 31 31 30 30 28 26 26 25 24 23 21 20 20 20 20 18 18 18 17 16 16 15 16 15 14 14 14 13 13 13 12 12 10 8 8 10 11 11 8 7 6 5 5 5 4 3 3 4 4 4 3 3 3 5 5 2 3 4 4 8 6 1 2 1
13 12 10 13 14 15 18 23 27 30 31 30 31 31 30 32 33 32 32 32 31 31 32 31 30 29 27 27 26 25 24 23 22 21 21 21 20 19 19 19 19 18 17 17 16 16 17 17 15 14 14 14 14 12 11 10 9 10 13 10 8 8 7 6 6 6 6 6 6 5 4 4 3 2 3 5 2 1 1 3 7 7 4 4 4
13 13 13 12 14 15 17 21 26 29 31 31 31 32 30 31 33 33 33 33 33 32 32 32 31 30 29 28 26 26 26 24 23 22 21 22 22 21 21 21 21 20 19 18 17 17 19 19 17 16 15 15 15 13 13 12 10 9 11 10 9 9 8 7 7 7 7 8 7 5 4 5 4 1 2 5 4 4 3 3 4 5 6 8 7
12 14 16 14 15 16 18 22 26 29 32 32 31 32 31 31 33 34 33 34 34 33 33 32 31 30 30 29 27 27 27 26 24 23 23 23 23 23 22 21 22 21 20 20 18 18 20 20 18 17 16 16 16 15 14 14 13 11 10 10 10 10 9 9 9 8 8 9 9 7 6 6 5 4 5 6 5 4 5 4 3 3 4 6 6
14 14 16 16 15 16 19 22 25 29 32 33 32 33 32 32 33 35 34 34 34 34 33 33 32 31 30 30 28 27 28 27 26 25 24 24 25 24 23 22 22 21 21 21 20 19 20 20 20 18 18 18 17 17 16 15 15 14 12 12 11 11 11 11 10 10 10 10 9 9 9 7 7 6 6 7 6 5 6 6 5 4 3 3 3
15 14 14 16 15 16 21 24 25 28 32 34 34 35 35 34 34 35 34 34 35 35 35 34 33 32 31 31 30 29 29 28 27 27 25 25 25 25 24 23 22 22 22 22 22 21 20 21 21 20 20 19 19 19 18 16 16 15 14 14 13 12 12 12 11 10 10 11 10 10 10 9 8 7 7 7 7 7 8 8 8 8 6 3 2
15 15 14 15 16 17 22 28 30 31 34 36 36 36 36 35 35 35 35 34 35 36 36 35 34 33 32 32 31 30 30 30 29 28 27 26 26 25 24 24 23 22 22 23 23 23 23 23 23 22 21 21 21 21 20 18 17 17 16 15 15 13 12 12 12 11 11 11 10 10 10 10 9 9 8 9 9 9 10 10 10 10 9 7 5
13 13 13 14 16 17 22 28 32 33 34 35 36 36 35 34 34 35 35 36 35 35 36 36 35 34 32 33 33 32 32 31 29 29 29 28 27 26 25 25 24 24 23 24 25 25 25 24 24 23 22 22 22 22 22 21 19 18 18 17 17 15 13 12 12 12 12 11 11 11 10 10 9 9 9 10 10 10 10 11 11 11 11 11 10
13 13 13 15 18 20 25 30 32 33 33 34 35 36 36 35 35 35 35 36 35 35 36 36 36 34 32 33 34 34 34 33 31 30 30 29 28 26 25 25 26 26 25 26 26 26 27 27 25 23 22 23 23 23 23 22 21 19 19 18 18 17 15 13 13 12 12 12 13 12 11 11 10 10 11 11 11 11 11 11 11 12 12 11 12
14 14 14 16 17 20 25 30 31 31 32 34 36 37 37 36 35 36 36 36 36 36 37 37 36 35 34 34 35 36 35 34 33 32 31 30 29 28 26 26 27 27 27 28 29 28 28 28 26 24 23 24 24 24 24 23 22 21 20 19 18 18 17 16 14 14 13 13 12 11 11 11 11 11 11 11 11 11 11 12 12 12 12 12 12
13 13 14 14 12 15 22 26 28 30 32 35 36 36 37 37 37 37 36 37 37 37 38 38 36 35 36 36 36 36 36 35 33 33 32 31 30 29 28 27 28 29 29 30 30 30 29 29 28 26 25 25 25 25 25 24 24 23 22 20 19 19 19 17 16 15 14 13 12 12 12 12 12 12 12 11 12 12 12 13 13 12 13 13 13
15 14 13 11 10 12 17 22 26 29 31 34 35 35 37 38 37 37 37 37 38 37 37 37 36 36 37 37 36 36 37 35 34 33 32 31 30 31 30 29 29 30 30 31 31 31 31 30 29 27 26 26 27 27 26 25 26 25 24 22 20 19 19 18 17 16 15 14 13 13 13 13 13 12 12 12 12 13 13 13 13 13 14 14 13
15 15 13 13 13 13 14 17 21 24 27 31 33 33 35 36 37 37 37 38 38 36 35 36 37 36 37 37 37 36 36 35 34 33 32 31 30 31 32 32 30 30 31 32 32 32 32 31 29 28 28 27 28 29 28 27 27 27 26 24 22 21 20 19 18 17 17 16 15 15 15 14 14 13 13 13 13 14 14 14 14 14 15 15 14
14 14 14 15 14 13 13 13 16 21 24 28 31 31 32 35 36 37 37 38 38 35 34 35 36 36 36 38 38 36 35 35 34 32 31 32 30 30 32 34 32 30 31 33 33 31 31 32 31 31 31 30 29 30 30 28 28 28 27 25 23 22 21 20 19 18 17 17 17 17 17 15 15 15 15 15 15 15 15 15 15 15 15 15 15
13 13 14 15 13 13 14 13 15 21 24 26 30 31 31 33 35 36 36 37 37 35 34 34 35 35 37 38 38 37 36 35 35 32 31 32 32 30 31 33 33 31 30 32 34 33 32 34 34 33 33 33 30 31 32 30 28 28 28 27 25 24 22 21 20 19 17 17 17 17 16 16 16 16 16 16 16 15 16 16 16 15 15 15 16
13 12 12 12 11 12 15 14 15 21 25 27 29 32 32 31 34 35 35 36 36 35 35 34 34 35 36 37 38 38 37 35 35 34 33 32 32 31 30 31 32 30 29 29 32 35 35 35 36 33 32 34 33 31 32 31 29 29 28 27 25 25 23 21 20 19 18 18 18 17 17 18 18 18 18 18 17 17 17 17 17 16 17 17 17
11 10 11 12 11 11 13 14 15 19 25 26 28 32 32 31 33 35 35 35 35 35 35 35 34 34 35 37 38 38 37 36 35 36 34 32 32 32 31 31 31 30 29 28 30 35 37 36 36 35 32 33 34 32 31 32 31 29 29 27 26 26 24 22 21 20 19 18 18 18 18 19 19 19 20 20 19 18 17 17 17 17 18 18 17
12 11 12 12 11 10 11 13 14 16 21 24 26 30 31 31 32 34 34 34 34 35 35 35 35 34 34 36 37 36 37 36 35 34 34 33 32 32 32 32 33 32 31 31 29 32 37 37 36 35 34 34 35 33 32 33 32 30 30 30 28 27 25 23 22 20 19 18 18 17 18 18 19 19 20 21 21 20 19 19 18 17 17 18 17
10 9 10 10 11 10 10 12 13 13 18 21 23 27 30 30 31 33 34 34 34 36 35 34 34 33 33 34 34 34 34 35 34 34 34 34 32 31 31 32 34 33 32 32 32 31 35 37 36 36 35 34 34 34 34 35 35 33 32 30 28 27 24 22 21 20 18 17 17 17 17 17 18 18 19 19 20 21 21 22 21 20 19 17 16
11 9 10 11 11 11 11 12 13 14 18 21 23 25 27 29 29 32 34 34 33 35 35 34 34 33 32 32 32 32 32 32 33 32 32 32 31 30 29 30 32 33 32 32 34 33 33 35 36 36 35 34 33 34 35 36 36 35 32 29 26 25 24 22 21 19 17 16 16 16 17 17 17 17 18 18 20 21 22 23 23 24 23 22 21
15 14 13 13 14 13 13 14 14 15 19 22 23 24 25 28 30 32 34 33 32 34 35 33 32 31 30 31 31 30 29 30 30 29 29 30 29 28 28 28 29 32 32 31 32 33 32 32 33 34 34 34 33 33 35 36 35 35 32 29 26 25 23 21 20 19 17 16 16 16 16 16 16 16 16 16 18 19 20 21 22 23 24 25 25
13 15 15 15 14 14 14 15 15 17 22 25 26 25 26 29 29 30 32 31 30 32 34 32 31 30 30 29 29 28 27 27 28 27 26 26 27 27 26 26 27 28 28 28 29 31 31 31 31 31 32 32 31 33 34 34 34 34 33 29 26 24 22 20 19 18 16 16 16 17 17 17 16 15 14 15 16 16 16 18 19 20 22 24 25
9 12 15 15 13 13 14 16 20 24 27 27 27 27 28 28 27 27 30 30 28 30 31 30 30 29 29 29 28 27 26 25 26 26 24 24 26 26 24 23 23 24 24 25 26 29 30 30 29 29 30 29 30 32 33 32 33 35 33 28 23 20 19 18 17 16 16 15 15 15 16 17 16 15 15 16 16 16 16 17 18 19 21 23 25
7 8 12 15 14 13 14 17 22 26 26 26 27 26 27 28 27 27 29 28 26 28 29 29 28 28 28 29 28 26 25 24 24 25 23 23 23 23 22 22 22 24 25 26 27 27 27 28 27 27 28 27 28 31 31 31 32 33 31 28 24 20 18 17 18 17 16 15 15 15 17 17 17 16 16 16 17 17 17 17 18 20 21 21 22
10 9 9 14 15 15 17 20 23 25 26 26 27 28 27 28 28 27 27 26 24 27 28 27 27 27 26 26 26 25 23 22 22 22 21 21 20 21 23 23 22 23 24 26 26 25 26 26 25 25 26 24 25 29 30 29 29 28 26 26 25 22 19 18 19 18 17 17 17 17 18 18 18 19 18 18 18 18 18 17 17 19 20 19 21
13 13 10 15 20 21 22 24 24 26 27 28 28 29 29 29 29 28 26 24 23 25 26 26 26 25 24 23 23 24 22 21 21 21 19 19 18 19 21 23 22 21 21 24 25 25 25 26 24 24 24 21 23 26 27 25 26 25 23 24 24 22 20 17 15 15 16 16 13 13 15 17 19 20 19 18 18 18 18 17 16 16 16 17 20
14 14 14 15 22 24 25 27 26 26 28 29 29 30 29 27 28 29 27 24 22 23 24 23 24 24 23 22 22 23 22 21 21 20 18 17 16 16 18 20 20 19 19 22 25 24 24 25 24 24 23 22 23 25 25 26 27 24 22 24 23 20 17 14 12 12 14 13 12 13 14 18 22 23 21 21 20 18 18 18 17 15 14 15 16
16 17 16 16 22 25 26 26 25 25 28 30 30 30 29 26 26 29 27 23 22 23 23 22 22 22 22 21 21 22 21 20 20 19 18 18 16 15 16 18 18 18 18 20 23 23 23 23 23 21 20 21 23 25 26 27 25 20 19 22 22 18 14 12 13 13 13 13 14 13 12 17 24 26 24 23 21 20 20 18 16 14 12 12 12
15 13 9 17 22 23 22 22 23 25 29 31 30 29 26 24 25 26 25 23 23 25 25 24 24 24 23 23 22 22 22 21 20 19 18 18 17 15 16 17 18 18 17 18 21 22 20 20 21 19 18 21 25 26 27 26 19 16 19 21 18 14 12 12 14 14 15 15 12 11 13 20 25 26 25 24 22 20 20 18 15 12 11 11 11
16 11 13 17 17 18 19 20 24 27 28 29 29 26 23 23 23 22 22 24 27 28 27 27 26 25 24 23 22 22 22 19 18 18 17 16 16 14 15 17 17 17 16 16 18 18 17 18 21 19 18 22 27 27 25 20 15 16 19 18 14 13 15 15 15 15 15 13 11 13 19 23 24 22 22 21 19 18 17 16 14 13 13 13 14
12 17 21 15 13 16 19 20 23 26 27 29 28 24 22 23 21 20 23 28 30 29 28 27 26 24 23 21 20 20 20 17 16 17 16 14 14 13 14 16 16 16 17 16 17 18 17 17 19 19 18 22 25 23 20 18 18 20 20 16 14 15 16 15 15 15 16 16 16 18 20 20 19 18 16 16 16 16 16 15 15 14 13 14 14
1 13 18 15 12 12 15 19 22 25 27 28 26 23 22 22 21 23 27 30 30 29 28 26 26 25 24 22 21 21 21 18 17 18 16 14 13 12 13 15 16 17 18 16 16 19 19 17 17 18 18 20 22 24 24 22 23 24 22 17 17 17 15 14 16 18 19 19 18 17 18 19 18 15 14 14 14 15 15 15 14 13 13 13 13
5 7 11 13 11 11 14 18 22 24 25 27 27 25 22 21 23 27 30 30 30 30 28 26 25 25 24 23 22 22 21 18 18 17 15 14 13 13 13 16 16 17 17 16 16 19 19 16 16 17 17 19 21 23 24 24 25 24 21 18 18 18 16 17 20 19 18 16 15 16 17 18 15 13 12 13 13 14 14 14 13 13 13 13 13
6 8 10 11 10 10 14 16 18 22 24 25 27 27 22 22 26 30 31 30 30 29 27 25 24 24 23 22 21 21 19 17 17 17 15 15 15 13 13 15 15 16 16 16 16 17 16 15 15 17 20 22 24 26 25 23 21 21 18 15 17 18 18 20 22 20 16 14 14 16 16 14 12 12 12 12 12 13 12 12 12 12 12 12 12
6 3 4 12 14 13 14 14 16 21 23 23 26 27 24 24 28 29 29 29 28 27 26 24 24 23 23 22 21 19 18 17 16 16 14 15 15 14 13 14 14 15 15 14 14 15 16 16 17 18 20 22 25 27 25 22 20 18 16 17 19 20 20 21 22 20 18 17 16 16 15 14 13 13 13 12 11 10 10 9 9 9 9 9 9
16 19 16 4 7 10 11 12 14 19 22 23 25 26 25 26 26 27 27 27 27 26 24 23 22 22 22 21 20 19 18 16 15 14 13 12 12 12 12 12 12 12 12 12 12 13 15 17 18 19 20 22 24 24 24 23 21 19 20 22 22 21 20 20 21 21 20 18 18 18 17 16 14 12 11 9 8 7 8 8 7 6 6 6 6
12 14 16 12 6 5 7 9 10 15 20 24 24 25 25 25 25 25 24 24 23 23 21 20 21 20 20 20 19 18 17 16 14 14 13 11 9 8 10 10 10 10 11 12 13 15 16 18 21 23 22 21 20 22 25 27 25 24 24 24 23 21 20 20 20 19 17 16 17 18 17 14 13 12 8 5 5 6 7 7 6 6 7 6 6
10 8 6 4 7 8 9 10 12 15 20 23 25 25 25 24 23 23 23 23 23 22 20 20 20 19 18 17 17 17 18 18 17 16 14 10 7 6 8 9 9 10 11 13 15 16 16 19 23 25 23 21 19 22 27 28 25 24 23 22 20 18 16 15 14 13 13 14 16 17 17 16 15 14 10 7 6 7 8 8 8 8 9 8 7
8 2 3 3 10 14 14 14 16 19 20 22 24 24 22 22 22 22 23 24 23 21 19 18 18 17 17 16 15 18 20 20 19 18 16 13 10 8 8 8 9 11 12 14 15 16 17 19 23 23 22 22 21 23 24 23 20 20 20 18 17 15 12 12 12 13 13 13 13 14 15 14 14 12 10 8 8 9 10 10 9 8 8 8 8
9 8 6 5 11 15 16 16 17 19 20 21 22 21 20 20 20 19 21 22 21 20 18 17 17 19 19 17 16 19 21 20 19 18 18 17 15 12 9 8 10 12 13 14 16 17 17 17 20 22 23 22 18 18 20 20 19 20 19 18 17 16 13 13 14 14 13 11 10 12 12 11 11 11 9 8 9 9 9 9 8 9 10 9 8
Wind_Direction
182 187 191 188 185 183 183 184 183 185 185 183 179 179 184 182 179 182 180 180 180 179 183 185 185 187 190 195 198 200 203 205 208 210 212 207 202 204 202 209 223 221 214 207 205 200 173 165 164 156 159 165 146 93 71 13 356 342 331 332 333 327 308 293 356 336 310 291 262 236 152 103 6 42 64 330 169 98 64 42 50 44 47 48 38
182 183 192 190 185 185 184 182 183 184 184 183 180 179 183 184 182 182 183 183 183 183 185 188 188 189 190 194 198 200 203 205 207 210 213 205 197 199 203 212 217 207 200 194 193 190 168 161 163 159 162 178 168 128 93 31 11 0 316 300 282 288 308 335 7 353 328 326 312 246 131 117 354 264 244 282 99 96 92 93 79 69 53 45 39
186 181 189 192 187 185 183 182 185 186 185 183 182 180 181 186 184 183 185 186 186 187 188 189 190 191 191 193 197 200 203 206 210 211 209 205 198 198 200 201 205 204 195 185 183 179 166 161 162 164 165 169 165 143 106 61 28 313 275 297 296 280 261 282 28 25 358 350 353 3 124 135 9 283 261 73 90 114 104 81 55 63 69 51 44
192 186 187 192 190 185 181 182 186 186 185 184 183 182 182 187 187 183 185 188 189 190 190 189 190 191 192 194 196 200 204 206 211 211 207 205 199 196 199 199 201 204 196 182 178 174 169 166 166 170 169 165 157 141 146 164 188 221 231 294 295 293 282 154 86 45 27 13 4 307 293 199 106 301 290 79 24 145 106 95 55 55 72 72 55
194 194 186 189 194 187 179 181 187 186 185 186 185 184 184 188 188 184 185 188 189 191 190 189 189 190 191 193 196 201 203 203 206 207 206 206 201 196 199 202 200 198 196 186 174 170 170 168 169 171 171 169 157 148 179 195 200 203 200 230 269 307 325 87 104 52 35 46 31 356 337 14 39 334 342 70 329 11 85 98 95 72 69 104 88
192 197 190 187 194 189 178 179 187 188 186 186 187 187 186 187 188 186 185 187 189 190 189 187 188 189 189 190 191 196 200 201 202 203 204 203 202 202 200 199 196 194 193 184 174 174 171 168 170 172 176 175 167 161 190 209 202 200 188 176 222 305 333 1 94 70 39 64 56 63 67 59 9 330 331 52 339 10 56 85 125 136 116 113 124
193 199 198 191 191 191 181 179 187 191 187 187 187 188 186 185 187 187 186 187 188 189 188 186 188 189 189 190 191 193 196 200 201 203 203 200 202 208 202 193 189 188 186 180 180 180 171 168 171 174 180 179 175 174 192 206 198 198 166 150 184 216 316 327 341 115 118 116 97 63 75 66 44 350 349 47 333 358 61 194 182 154 133 130 129
193 198 201 196 188 190 189 181 186 193 189 186 187 187 187 185 187 188 187 187 187 188 189 187 188 190 190 192 193 194 196 198 199 201 202 200 204 205 192 182 181 182 182 180 180 179 172 169 173 177 182 180 176 179 195 209 182 165 147 146 189 214 232 315 319 346 48 114 99 50 63 55 27 31 26 61 347 326 272 237 206 156 148 148 123
193 196 200 200 188 188 191 184 186 194 191 187 188 187 186 186 186 187 188 188 188 188 188 189 190 191 192 192 192 195 196 196 196 198 200 201 200 192 178 175 177 179 181 182 181 178 173 169 174 180 185 184 181 185 195 199 171 163 171 166 188 202 189 228 306 341 11 56 61 48 57 41 296 262 249 221 158 21 328 282 245 192 149 123 91
196 197 194 198 195 190 192 187 186 192 193 188 188 187 186 185 185 186 188 188 188 188 188 190 192 192 193 193 192 193 194 195 194 194 198 198 192 185 176 173 174 176 181 183 181 178 174 172 178 184 187 190 194 200 195 183 180 184 187 193 190 199 205 195 260 326 40 33 21 23 342 308 285 257 247 244 162 86 274 278 291 324 101 88 60
191 199 191 189 196 194 193 191 186 190 193 188 186 188 186 185 186 187 189 189 188 188 189 190 192 194 195 193 192 191 191 193 193 193 193 190 187 186 182 176 174 176 179 179 177 179 180 179 184 189 191 192 198 205 192 173 185 190 186 191 189 197 216 210 242 285 142 309 302 256 285 305 316 329 348 9 31 22 336 297 322 349 59 75 72
185 197 188 177 188 195 194 192 186 187 192 189 187 189 186 186 187 186 188 189 188 188 189 190 192 194 195 194 194 193 191 191 194 194 188 183 185 187 184 180 179 180 180 178 177 180 184 184 186 191 192 192 197 199 191 188 197 189 180 187 194 198 210 208 216 222 201 219 239 236 243 266 287 308 337 353 35 38 13 321 319 329 7 44 122
188 191 187 174 182 194 194 189 185 186 190 190 189 190 187 185 186 186 187 188 187 187 188 190 192 194 194 194 195 194 192 191 194 194 187 182 185 186 183 181 181 183 182 179 180 184 186 188 189 191 192 192 195 196 191 197 204 182 172 181 194 199 202 207 217 218 209 221 246 251 238 254 262 231 281 306 325 9 299 272 309 333 344 321 278
193 187 189 187 186 192 194 188 184 185 188 190 190 191 189 185 185 187 187 187 187 186 187 190 192 194 194 194 194 194 193 193 194 194 189 185 186 187 185 182 182 183 183 182 184 186 187 189 191 192 194 193 194 195 191 196 202 183 170 179 192 198 200 206 218 223 219 229 250 259 249 260 268 218 233 263 281 288 263 259 316 337 322 300 287
195 186 188 193 191 191 193 189 185 185 187 190 191 190 189 186 185 187 187 187 187 185 187 190 192 194 194 194 194 194 194 195 195 194 192 190 190 190 187 186 185 185 186 187 188 187 186 189 192 193 196 195 193 194 191 193 197 190 181 185 193 202 204 206 216 226 232 231 235 240 243 248 244 230 232 236 240 253 264 285 306 322 309 296 292
196 189 188 191 193 191 191 189 185 185 187 190 192 190 189 187 185 187 187 187 187 186 188 191 193 194 195 195 194 194 195 195 196 196 195 193 193 193 191 189 189 189 189 189 189 189 187 188 191 193 195 195 193 193 192 192 194 193 191 190 194 202 205 208 214 224 233 233 230 230 232 239 239 230 233 236 230 225 240 257 253 242 266 289 297
193 192 189 189 195 194 190 189 187 185 187 191 193 191 189 187 185 186 187 188 188 188 189 192 193 194 195 195 194 194 195 196 197 196 195 195 196 195 194 192 193 191 189 189 188 189 190 190 192 194 194 194 194 194 194 195 196 196 196 194 196 200 204 207 212 220 231 233 231 230 227 231 239 237 234 237 237 232 234 238 235 237 245 252 285
188 191 189 189 197 193 187 191 193 190 189 191 192 192 190 189 186 185 186 189 189 189 191 193 194 194 194 194 194 195 196 197 198 197 195 196 197 196 195 195 196 192 188 188 188 188 191 193 193 193 194 194 193 193 194 196 198 199 199 199 199 202 204 205 208 217 229 233 233 231 228 227 231 234 233 233 233 232 232 233 233 236 240 240 250
185 189 188 191 200 194 187 193 196 193 191 190 191 191 190 189 187 187 188 190 190 190 192 193 194 195 194 194 195 196 198 198 198 198 197 198 197 196 196 195 195 193 190 188 187 188 191 194 195 196 195 194 193 193 194 195 197 198 200 201 200 202 205 203 205 215 224 232 234 231 231 231 230 232 234 235 235 234 233 234 235 237 237 238 244
182 188 190 194 202 200 193 194 197 195 191 190 191 192 192 191 188 188 189 190 191 191 192 194 195 195 193 193 196 197 199 199 198 198 198 199 199 197 196 195 194 194 192 189 187 189 192 195 197 196 196 196 195 195 195 196 197 198 202 205 202 200 202 202 206 213 221 229 230 229 231 233 233 235 238 239 240 240 239 239 239 238 237 237 242
180 184 190 195 198 200 197 196 198 196 191 191 193 194 194 193 190 189 190 190 192 193 194 195 194 194 193 193 196 198 199 200 199 199 199 200 200 200 197 196 194 194 193 191 190 192 194 196 196 196 197 196 195 196 196 197 197 198 201 207 206 201 199 202 207 213 221 227 227 225 230 233 235 237 238 240 243 245 244 243 242 240 238 240 240
181 181 189 192 188 194 198 195 196 198 195 194 194 193 194 194 192 191 191 192 193 194 195 195 193 193 194 195 196 199 200 201 200 201 200 200 200 201 199 196 195 195 193 192 192 193 195 196 196 196 197 196 195 195 195 196 196 198 201 206 208 204 199 199 204 213 221 225 228 229 232 235 237 240 241 243 246 247 246 245 244 242 242 243 244
179 178 182 183 184 197 199 192 194 199 196 193 194 193 193 193 192 191 191 192 194 195 194 194 193 194 196 196 196 199 200 200 201 201 200 199 199 200 200 198 196 196 194 194 195 195 196 195 196 197 197 196 196 195 195 195 196 198 200 204 207 206 201 197 200 211 219 222 227 230 233 237 239 241 244 246 248 251 251 249 248 249 250 249 250
173 174 176 180 186 197 197 189 193 198 195 191 193 194 193 192 192 192 192 193 195 195 192 191 193 196 196 196 197 198 199 198 199 200 199 198 198 198 200 200 198 196 195 196 197 197 196 194 194 196 196 197 197 196 195 195 197 199 200 202 204 205 203 200 201 209 217 221 225 229 234 237 239 241 245 248 249 251 253 252 252 252 253 253 253
172 174 174 181 188 193 193 186 189 194 193 190 191 193 194 193 193 193 192 194 195 194 190 190 192 194 195 196 197 197 197 197 198 198 197 197 197 196 198 199 199 197 195 196 197 197 195 193 193 195 196 197 197 196 195 195 196 199 200 201 202 204 205 205 205 210 218 222 225 228 232 236 237 239 243 246 248 250 251 251 251 251 250 252 252
172 173 172 180 187 190 188 183 186 191 191 189 189 192 195 194 194 194 193 195 195 194 190 188 190 192 194 196 197 197 197 197 197 197 197 198 198 197 197 197 197 197 195 194 196 196 195 194 195 197 196 196 195 197 198 197 196 198 200 200 201 202 204 205 207 211 219 225 227 230 233 237 239 241 242 244 247 249 250 248 248 249 249 250 250
172 169 168 177 183 185 184 182 185 189 191 191 189 192 195 195 195 195 195 195 194 193 191 188 190 193 194 196 197 198 199 198 198 199 199 199 200 199 197 194 195 195 193 192 194 196 197 196 196 197 196 196 196 197 200 200 197 197 199 200 201 204 204 206 210 213 219 226 230 232 236 239 239 241 243 245 248 249 251 250 249 249 249 248 249
164 165 167 178 183 181 182 183 185 188 191 192 190 192 194 195 196 196 196 195 193 193 191 189 191 194 195 196 197 198 199 199 200 201 200 200 201 200 198 194 193 194 194 195 196 195 196 197 197 197 197 198 198 198 200 200 198 197 197 198 201 204 205 208 213 216 220 225 229 233 237 239 240 241 243 244 245 246 248 251 251 251 249 247 246
161 171 173 181 184 178 178 183 185 187 190 192 192 192 193 196 197 197 197 196 193 192 191 189 191 195 195 196 197 198 199 199 200 200 200 200 201 200 198 195 194 195 197 200 198 194 195 196 196 196 197 198 199 199 199 199 197 196 196 197 199 202 204 208 213 216 220 225 231 234 237 241 241 243 245 245 244 243 243 247 250 250 249 247 245
164 177 180 185 184 179 180 181 183 185 188 191 192 192 194 196 196 195 197 197 192 190 191 190 190 194 195 194 195 196 197 198 198 199 199 200 200 201 200 197 197 198 199 200 198 194 194 195 195 196 197 198 199 200 200 200 199 197 196 196 198 199 201 207 213 218 222 227 234 237 240 243 243 244 248 250 249 247 247 249 251 252 251 248 245
173 185 185 191 189 186 183 180 184 187 188 191 193 193 195 197 197 196 196 196 191 188 190 190 190 192 192 191 192 194 195 196 197 197 198 198 200 201 202 201 199 198 199 199 196 195 195 195 196 196 197 198 199 200 201 202 202 200 197 196 197 199 201 207 213 218 223 229 236 241 244 246 247 248 252 255 255 254 253 254 257 258 258 255 252
180 185 186 190 191 190 186 184 187 187 187 191 191 191 195 199 199 198 196 196 191 187 188 189 188 188 188 188 189 190 192 193 193 194 195 197 200 202 204 204 200 198 199 198 195 195 195 195 196 196 196 198 199 201 201 201 202 202 199 197 198 199 201 206 213 219 225 231 236 241 246 248 250 251 254 258 259 256 255 256 258 262 264 264 262
184 178 182 189 190 190 189 185 184 186 189 191 189 189 194 200 201 198 196 196 191 186 186 185 184 184 183 184 184 185 187 188 188 189 191 194 198 201 204 204 199 197 199 199 197 196 195 197 197 196 197 198 201 202 200 199 201 201 199 197 197 198 201 205 211 217 223 230 235 239 243 247 249 251 254 260 263 261 259 260 261 263 265 267 267
203 181 180 184 187 188 187 185 186 188 191 190 189 190 193 197 200 198 197 197 190 183 182 180 178 179 178 179 180 181 182 183 183 185 188 193 196 199 203 202 197 195 197 200 200 199 198 199 198 197 198 199 202 202 198 199 204 203 201 199 196 196 201 206 212 219 225 232 238 242 245 248 250 253 254 258 261 263 263 263 263 262 263 265 268
236 210 182 177 183 185 183 186 187 187 188 186 187 190 190 193 197 197 199 199 187 176 177 175 172 172 173 175 176 176 177 177 179 182 187 193 196 199 201 199 195 196 198 201 204 203 203 201 199 199 199 198 202 200 195 199 204 203 202 203 201 203 210 215 223 228 231 237 245 251 254 254 254 256 258 260 263 264 263 262 257 256 260 264 266
245 243 201 174 179 184 182 185 184 181 182 183 185 188 189 191 194 195 197 197 182 171 171 170 167 168 168 168 170 170 170 172 174 179 187 193 195 199 202 201 200 199 197 200 205 207 207 204 201 200 197 196 200 197 193 197 199 196 199 205 207 211 215 221 227 227 228 236 246 254 260 263 261 260 261 264 265 264 262 259 255 256 264 269 271
246 248 227 183 179 184 181 178 177 178 180 182 183 185 187 189 191 192 192 188 175 168 168 166 166 166 164 162 164 167 168 170 174 179 186 190 193 198 201 203 204 200 195 196 200 204 207 205 202 199 193 192 196 191 187 192 194 191 194 202 206 208 211 219 226 222 224 235 250 261 270 278 277 272 268 266 266 265 263 263 263 265 268 271 275
245 242 238 202 182 179 174 171 173 179 181 180 180 182 183 185 187 186 185 180 170 165 164 163 164 164 163 163 165 167 169 172 178 180 179 183 191 198 200 200 201 198 194 195 197 200 203 203 201 198 192 189 189 185 181 185 188 188 192 199 203 202 204 217 225 220 220 230 243 252 266 278 278 272 268 264 263 264 264 265 266 265 266 270 275
244 242 231 198 175 167 166 168 172 177 179 177 177 180 181 182 182 181 180 175 165 161 161 162 162 162 162 162 163 166 168 173 179 179 178 182 188 195 199 200 200 200 198 197 197 198 198 197 196 194 190 185 182 180 179 181 185 189 193 198 201 195 191 208 218 216 219 228 237 248 264 272 269 266 264 263 263 264 266 267 266 261 262 268 272
243 248 199 164 160 157 161 168 172 176 178 174 174 178 181 180 177 175 172 166 160 158 159 161 162 162 162 163 164 166 167 170 176 179 180 182 184 190 198 197 198 203 203 197 193 193 189 185 184 185 186 184 180 178 179 181 186 195 196 197 195 181 180 202 214 218 223 226 234 250 258 260 261 262 262 261 262 262 262 263 263 260 258 258 258
237 204 146 144 152 153 160 170 173 175 175 171 172 175 174 172 172 170 164 157 156 156 158 160 162 161 161 162 162 163 164 167 174 178 180 180 181 189 196 193 192 196 191 182 182 184 180 176 179 182 182 178 174 174 180 189 199 200 192 190 188 179 184 202 213 219 225 230 245 258 256 257 260 260 258 258 258 256 255 258 262 261 260 258 259
234 164 144 149 155 155 164 171 171 173 171 168 169 168 163 163 165 161 155 151 151 153 155 155 155 154 153 154 153 155 160 166 172 176 178 178 180 188 191 187 186 186 181 178 179 181 181 181 183 187 187 183 182 190 206 217 210 194 184 182 193 196 196 204 211 216 227 243 257 256 252 255 257 253 249 249 249 250 253 259 263 265 267 268 268
151 143 145 150 150 158 170 169 167 168 166 163 162 157 154 158 156 151 149 147 146 147 149 149 149 149 150 151 152 156 162 168 171 172 173 174 179 185 185 182 180 178 179 183 183 182 185 186 187 190 193 195 203 215 222 213 195 188 187 191 200 205 205 209 217 223 232 242 246 243 245 252 253 249 248 248 249 252 255 259 264 271 277 279 278
129 133 144 148 151 162 165 161 162 162 158 157 155 150 148 150 147 144 144 142 142 144 146 148 149 148 147 148 152 158 163 166 167 168 167 167 173 179 177 176 176 176 179 182 179 179 183 186 185 181 174 175 185 193 191 185 181 185 192 197 201 204 204 211 222 230 233 236 240 244 247 248 246 245 249 250 250 254 258 264 272 278 281 282 281
151 142 144 150 154 152 146 146 149 147 145 148 148 145 142 140 139 140 140 140 142 144 144 145 145 145 145 147 151 157 160 161 164 166 163 160 164 167 165 167 173 175 178 180 178 175 174 169 162 155 149 156 168 172 172 176 183 187 194 203 209 210 210 214 222 227 224 226 238 244 241 237 240 250 257 259 260 262 266 271 276 278 282 284 285
17 359 171 157 148 139 135 133 131 129 131 136 138 136 133 133 135 138 139 140 140 140 141 143 143 144 147 149 149 152 153 152 155 157 155 155 161 164 163 167 174 175 176 180 180 176 170 157 147 144 146 157 169 174 177 181 185 193 208 216 212 211 214 219 225 229 228 230 237 242 245 249 258 264 266 265 264 263 266 271 274 280 285 283 281
22 355 341 357 124 126 126 122 121 124 125 124 125 126 128 130 133 135 135 136 137 137 137 138 139 141 144 146 146 146 144 144 144 143 141 145 159 171 173 174 179 180 178 179 178 176 171 159 148 149 155 164 173 177 178 181 189 205 216 213 208 211 217 220 224 229 231 233 238 244 251 257 262 264 264 258 252 252 261 267 271 282 288 277 266
54 19 354 352 24 67 95 103 112 122 123 120 121 125 127 128 130 133 133 131 130 130 128 128 132 136 139 142 144 142 138 136 133 130 130 135 149 171 181 185 193 195 190 185 182 183 179 166 157 157 159 164 173 181 184 189 198 207 208 207 210 214 216 219 223 229 236 240 241 243 246 247 247 245 236 218 216 232 246 250 247 252 257 251 243
57 39 10 34 78 86 92 95 100 111 117 119 121 122 123 124 127 130 127 121 121 123 123 124 130 133 134 136 138 136 133 130 126 125 127 129 132 148 166 181 193 196 192 190 186 183 180 171 166 164 163 164 175 189 196 199 202 203 204 209 212 210 212 220 225 226 226 224 220 223 226 226 226 222 207 192 201 211 218 228 236 242 248 248 243
63 39 255 150 109 104 103 101 104 109 112 113 113 114 117 119 122 125 125 125 127 127 128 133 138 140 142 142 134 129 130 130 128 128 126 122 121 131 149 167 176 175 179 184 179 171 172 173 170 169 172 176 183 192 199 201 201 203 206 209 205 200 204 212 212 209 210 208 208 217 225 229 233 229 213 203 211 214 214 220 228 233 241 253 262
134 165 188 134 101 97 97 99 103 106 106 104 105 109 112 114 119 125 128 132 135 137 144 151 149 146 149 146 128 123 130 132 131 131 129 125 120 118 124 146 162 165 169 172 166 159 162 171 174 176 177 180 184 190 195 198 200 202 203 198 193 193 194 195 197 204 211 221 236 244 246 252 257 253 238 221 221 221 211 206 216 231 235 236 247